Time,TemperatureF,DewpointF,PressureIn,WindDirection,WindDirectionDegrees,WindSpeedMPH,WindSpeedGustMPH,Humidity,HourlyPrecipIn,Conditions,Clouds,dailyrainin,SoftwareType,DateUTC
2013-02-04 00:01:00,28.2,26.7,30.12,SSE,148,0.0,0.0,94,0.00,,,0.00,LWC V2.00 B2112,2013-02-04 08:01:00,
2013-02-04 00:06:00,28.1,26.6,30.12,SSE,148,0.0,0.0,94,0.00,,,0.00,LWC V2.00 B2112,2013-02-04 08:06:00,
2013-02-04 00:11:00,28.2,27.0,30.11,SSE,148,0.0,0.0,95,0.00,,,0.00,LWC V2.00 B2112,2013-02-04 08:11:00,
2013-02-04 00:16:00,28.2,26.7,30.11,SSE,148,0.0,0.0,94,0.00,,,0.00,LWC V2.00 B2112,2013-02-04 08:16:00,
2013-02-04 00:21:00,28.2,27.0,30.11,SSE,148,0.0,0.0,95,0.00,,,0.00,LWC V2.00 B2112,2013-02-04 08:21:00,
2013-02-04 00:26:00,28.2,27.0,30.11,SSE,148,0.0,0.0,95,0.00,,,0.00,LWC V2.00 B2112,2013-02-04 08:26:00,
2013-02-04 00:31:00,28.2,26.7,30.11,SSE,148,0.0,0.0,94,0.00,,,0.00,LWC V2.00 B2112,2013-02-04 08:31:00,
2013-02-04 00:36:00,28.2,26.7,30.11,SSE,148,0.0,0.0,94,0.00,,,0.00,LWC V2.00 B2112,2013-02-04 08:36:00,
2013-02-04 00:41:00,28.2,27.0,30.11,SSE,148,0.0,0.0,95,0.00,,,0.00,LWC V2.00 B2112,2013-02-04 08:41:00,
2013-02-04 00:46:00,28.4,27.2,30.11,SSE,148,0.0,0.0,95,0.00,,,0.00,LWC V2.00 B2112,2013-02-04 08:46:00,
2013-02-04 00:51:00,28.4,26.9,30.11,SSE,148,0.0,0.0,94,0.00,,,0.00,LWC V2.00 B2112,2013-02-04 08:51:00,
2013-02-04 00:56:00,28.2,26.7,30.11,SSE,148,0.0,0.0,94,0.00,,,0.00,LWC V2.00 B2112,2013-02-04 08:56:00,
2013-02-04 01:01:00,28.5,27.3,30.11,SSE,148,0.0,0.0,95,0.00,,,0.00,LWC V2.00 B2112,2013-02-04 09:01:00,
2013-02-04 01:06:00,28.5,27.3,30.11,SSE,148,0.0,0.0,95,0.00,,,0.00,LWC V2.00 B2112,2013-02-04 09:06:00,
2013-02-04 01:11:00,28.5,27.3,30.10,SSE,148,0.0,0.0,95,0.00,,,0.00,LWC V2.00 B2112,2013-02-04 09:11:00,
2013-02-04 01:16:00,28.4,26.9,30.10,SSE,148,0.0,0.0,94,0.00,,,0.00,LWC V2.00 B2112,2013-02-04 09:16:00,
2013-02-04 01:21:00,28.4,26.9,30.10,SSE,148,0.0,0.0,94,0.00,,,0.00,LWC V2.00 B2112,2013-02-04 09:21:00,
2013-02-04 01:26:00,28.4,27.2,30.10,SSE,148,0.0,0.0,95,0.00,,,0.00,LWC V2.00 B2112,2013-02-04 09:26:00,
2013-02-04 01:31:00,28.5,27.3,30.10,SSE,148,0.0,0.0,95,0.00,,,0.00,LWC V2.00 B2112,2013-02-04 09:31:00,
2013-02-04 01:36:00,28.5,27.3,30.10,SSE,148,0.0,0.0,95,0.00,,,0.00,LWC V2.00 B2112,2013-02-04 09:36:00,
2013-02-04 01:41:00,28.5,27.3,30.09,SSE,148,0.0,0.0,95,0.00,,,0.00,LWC V2.00 B2112,2013-02-04 09:41:00,
2013-02-04 01:46:00,28.5,27.3,30.09,SSE,148,0.0,0.0,95,0.00,,,0.00,LWC V2.00 B2112,2013-02-04 09:46:00,
2013-02-04 01:51:00,28.4,26.9,30.09,SSE,148,0.0,0.0,94,0.00,,,0.00,LWC V2.00 B2112,2013-02-04 09:51:00,
2013-02-04 01:56:00,28.5,27.0,30.10,SSE,148,0.0,0.0,94,0.00,,,0.00,LWC V2.00 B2112,2013-02-04 09:56:00,
2013-02-04 02:01:00,28.5,27.0,30.10,SSE,148,0.0,0.0,94,0.00,,,0.00,LWC V2.00 B2112,2013-02-04 10:01:00,
2013-02-04 02:06:00,28.5,27.0,30.10,SSE,148,0.0,0.0,94,0.00,,,0.00,LWC V2.00 B2112,2013-02-04 10:06:00,
2013-02-04 02:11:00,28.5,27.3,30.10,SSE,148,0.0,0.0,95,0.00,,,0.00,LWC V2.00 B2112,2013-02-04 10:11:00,
2013-02-04 02:16:00,28.5,27.3,30.10,SSE,148,0.0,0.0,95,0.00,,,0.00,LWC V2.00 B2112,2013-02-04 10:16:00,
2013-02-04 02:21:00,28.5,27.3,30.10,SSE,148,0.0,0.0,95,0.00,,,0.00,LWC V2.00 B2112,2013-02-04 10:21:00,
2013-02-04 02:26:00,28.7,27.5,30.11,SSE,148,0.0,0.0,95,0.00,,,0.00,LWC V2.00 B2112,2013-02-04 10:26:00,
2013-02-04 02:31:00,28.7,27.5,30.11,SSE,148,0.0,0.0,95,0.00,,,0.00,LWC V2.00 B2112,2013-02-04 10:31:00,
2013-02-04 02:36:00,28.5,27.0,30.11,SSE,148,0.0,0.0,94,0.00,,,0.00,LWC V2.00 B2112,2013-02-04 10:36:00,
2013-02-04 02:41:00,28.7,27.5,30.10,SSE,148,0.0,0.0,95,0.00,,,0.00,LWC V2.00 B2112,2013-02-04 10:41:00,
2013-02-04 02:46:00,28.7,27.5,30.10,SSE,148,0.0,0.0,95,0.00,,,0.00,LWC V2.00 B2112,2013-02-04 10:46:00,
2013-02-04 02:51:00,28.8,27.6,30.10,SSE,148,0.0,2.0,95,0.00,,,0.00,LWC V2.00 B2112,2013-02-04 10:51:00,
2013-02-04 02:56:00,29.3,28.0,30.11,SSE,148,0.0,1.0,95,0.00,,,0.00,LWC V2.00 B2112,2013-02-04 10:56:00,
2013-02-04 03:01:00,29.4,27.9,30.11,SSE,148,0.0,0.0,94,0.00,,,0.00,LWC V2.00 B2112,2013-02-04 11:01:00,
2013-02-04 03:06:00,29.5,28.0,30.11,ENE,71,1.0,4.0,94,0.00,,,0.00,LWC V2.00 B2112,2013-02-04 11:06:00,
2013-02-04 03:11:00,29.8,28.3,30.11,East,89,0.0,2.0,94,0.00,,,0.00,LWC V2.00 B2112,2013-02-04 11:11:00,
2013-02-04 03:16:00,30.0,28.2,30.11,SSE,147,0.0,1.0,93,0.00,,,0.00,LWC V2.00 B2112,2013-02-04 11:16:00,
2013-02-04 03:21:00,30.0,28.5,30.11,SSE,147,0.0,0.0,94,0.00,,,0.00,LWC V2.00 B2112,2013-02-04 11:21:00,
2013-02-04 03:26:00,30.0,28.2,30.11,SSE,147,0.0,0.0,93,0.00,,,0.00,LWC V2.00 B2112,2013-02-04 11:26:00,
2013-02-04 03:31:00,30.0,28.2,30.11,SSE,147,0.0,0.0,93,0.00,,,0.00,LWC V2.00 B2112,2013-02-04 11:31:00,
2013-02-04 03:36:00,29.8,28.0,30.11,SSE,147,0.0,0.0,93,0.00,,,0.00,LWC V2.00 B2112,2013-02-04 11:36:00,
2013-02-04 03:41:00,29.8,28.0,30.10,SSE,147,0.0,1.0,93,0.00,,,0.00,LWC V2.00 B2112,2013-02-04 11:41:00,
2013-02-04 03:46:00,30.1,28.3,30.10,ESE,121,0.0,2.0,93,0.00,,,0.00,LWC V2.00 B2112,2013-02-04 11:46:00,
2013-02-04 03:51:00,30.3,28.5,30.10,ESE,121,0.0,0.0,93,0.00,,,0.00,LWC V2.00 B2112,2013-02-04 11:51:00,
2013-02-04 03:56:00,30.3,28.5,30.10,ESE,121,0.0,0.0,93,0.00,,,0.00,LWC V2.00 B2112,2013-02-04 11:56:00,
2013-02-04 04:01:00,30.3,28.5,30.10,ESE,121,0.0,0.0,93,0.00,,,0.00,LWC V2.00 B2112,2013-02-04 12:01:00,
2013-02-04 04:06:00,30.3,28.5,30.10,ESE,121,0.0,0.0,93,0.00,,,0.00,LWC V2.00 B2112,2013-02-04 12:06:00,
2013-02-04 04:11:00,30.1,28.3,30.09,ESE,121,0.0,0.0,93,0.00,,,0.00,LWC V2.00 B2112,2013-02-04 12:11:00,
2013-02-04 04:16:00,29.8,27.8,30.09,ESE,121,0.0,0.0,92,0.00,,,0.00,LWC V2.00 B2112,2013-02-04 12:16:00,
2013-02-04 04:21:00,29.7,27.7,30.09,ESE,121,0.0,0.0,92,0.00,,,0.00,LWC V2.00 B2112,2013-02-04 12:21:00,
2013-02-04 04:26:00,29.5,27.7,30.09,ESE,121,0.0,0.0,93,0.00,,,0.00,LWC V2.00 B2112,2013-02-04 12:26:00,
2013-02-04 04:31:00,29.4,27.6,30.09,ESE,121,0.0,0.0,93,0.00,,,0.00,LWC V2.00 B2112,2013-02-04 12:31:00,
2013-02-04 04:36:00,29.3,27.8,30.09,ESE,121,0.0,0.0,94,0.00,,,0.00,LWC V2.00 B2112,2013-02-04 12:36:00,
2013-02-04 04:41:00,29.4,27.9,30.09,SW,217,0.0,2.0,94,0.00,,,0.00,LWC V2.00 B2112,2013-02-04 12:41:00,
2013-02-04 04:46:00,29.3,27.8,30.09,SW,217,0.0,0.0,94,0.00,,,0.00,LWC V2.00 B2112,2013-02-04 12:46:00,
2013-02-04 04:51:00,28.8,27.0,30.09,SW,217,0.0,0.0,93,0.00,,,0.00,LWC V2.00 B2112,2013-02-04 12:51:00,
2013-02-04 04:56:00,28.7,26.9,30.08,SW,217,0.0,0.0,93,0.00,,,0.00,LWC V2.00 B2112,2013-02-04 12:56:00,
2013-02-04 05:01:00,28.5,26.7,30.08,SW,217,0.0,0.0,93,0.00,,,0.00,LWC V2.00 B2112,2013-02-04 13:01:00,
2013-02-04 05:06:00,28.4,26.6,30.08,SW,215,0.0,0.0,93,0.00,,,0.00,LWC V2.00 B2112,2013-02-04 13:06:00,
2013-02-04 05:11:00,28.4,26.9,30.09,SW,215,0.0,0.0,94,0.00,,,0.00,LWC V2.00 B2112,2013-02-04 13:11:00,
2013-02-04 05:16:00,28.4,26.9,30.09,SW,215,0.0,0.0,94,0.00,,,0.00,LWC V2.00 B2112,2013-02-04 13:16:00,
2013-02-04 05:21:00,28.4,27.2,30.09,SW,215,0.0,0.0,95,0.00,,,0.00,LWC V2.00 B2112,2013-02-04 13:21:00,
2013-02-04 05:26:00,28.4,27.2,30.08,SW,215,0.0,0.0,95,0.00,,,0.00,LWC V2.00 B2112,2013-02-04 13:26:00,
2013-02-04 05:31:00,28.4,27.2,30.08,SW,215,0.0,0.0,95,0.00,,,0.00,LWC V2.00 B2112,2013-02-04 13:31:00,
2013-02-04 05:36:00,27.8,26.3,30.08,SW,215,0.0,0.0,94,0.00,,,0.00,LWC V2.00 B2112,2013-02-04 13:36:00,
2013-02-04 05:41:00,27.8,26.3,30.08,SW,215,0.0,0.0,94,0.00,,,0.00,LWC V2.00 B2112,2013-02-04 13:41:00,
2013-02-04 05:46:00,27.8,26.3,30.08,SW,215,0.0,0.0,94,0.00,,,0.00,LWC V2.00 B2112,2013-02-04 13:46:00,
2013-02-04 05:51:00,27.8,26.3,30.08,SW,215,0.0,0.0,94,0.00,,,0.00,LWC V2.00 B2112,2013-02-04 13:51:00,
2013-02-04 05:56:00,27.8,26.3,30.07,SW,215,0.0,0.0,94,0.00,,,0.00,LWC V2.00 B2112,2013-02-04 13:56:00,
2013-02-04 06:01:00,27.8,26.3,30.07,SW,215,0.0,0.0,94,0.00,,,0.00,LWC V2.00 B2112,2013-02-04 14:01:00,
2013-02-04 06:06:00,27.8,26.3,30.07,SSW,213,0.0,0.0,94,0.00,,,0.00,LWC V2.00 B2112,2013-02-04 14:06:00,
2013-02-04 06:11:00,27.8,26.3,30.07,SSW,213,0.0,0.0,94,0.00,,,0.00,LWC V2.00 B2112,2013-02-04 14:11:00,
2013-02-04 06:16:00,27.8,26.3,30.07,SSW,213,0.0,0.0,94,0.00,,,0.00,LWC V2.00 B2112,2013-02-04 14:16:00,
2013-02-04 06:21:00,26.6,25.1,30.07,SSW,213,0.0,0.0,94,0.00,,,0.00,LWC V2.00 B2112,2013-02-04 14:21:00,
2013-02-04 06:26:00,26.6,25.1,30.07,SSW,213,0.0,0.0,94,0.00,,,0.00,LWC V2.00 B2112,2013-02-04 14:26:00,
2013-02-04 06:31:00,26.3,24.8,30.07,SSW,213,0.0,0.0,94,0.00,,,0.00,LWC V2.00 B2112,2013-02-04 14:31:00,
2013-02-04 06:36:00,26.3,24.8,30.07,SSW,213,0.0,0.0,94,0.00,,,0.00,LWC V2.00 B2112,2013-02-04 14:36:00,
2013-02-04 06:41:00,26.3,24.8,30.08,SSW,213,0.0,0.0,94,0.00,,,0.00,LWC V2.00 B2112,2013-02-04 14:41:00,
2013-02-04 06:46:00,26.1,24.6,30.08,SSW,213,0.0,0.0,94,0.00,,,0.00,LWC V2.00 B2112,2013-02-04 14:46:00,
2013-02-04 06:51:00,26.1,24.6,30.08,SSW,213,0.0,0.0,94,0.00,,,0.00,LWC V2.00 B2112,2013-02-04 14:51:00,
2013-02-04 06:56:00,26.1,24.6,30.08,SSW,213,0.0,0.0,94,0.00,,,0.00,LWC V2.00 B2112,2013-02-04 14:56:00,
2013-02-04 07:01:00,-999.0,-99.9,30.08,North,-999,-999.0,0.0,-999,0.00,,,0.00,LWC V2.00 B2112,2013-02-04 15:01:00,
2013-02-04 07:06:00,-999.0,-99.9,30.08,North,-999,-999.0,0.0,-999,0.00,,,0.00,LWC V2.00 B2112,2013-02-04 15:06:00,
2013-02-04 07:11:00,-999.0,-99.9,30.08,NW,309,0.0,0.0,96,0.00,,,0.00,LWC V2.00 B2112,2013-02-04 15:11:00,
2013-02-04 07:16:00,-999.0,-99.9,30.08,NW,309,0.0,0.0,96,0.00,,,0.00,LWC V2.00 B2112,2013-02-04 15:16:00,
2013-02-04 07:21:00,-999.0,-99.9,30.08,NW,309,0.0,0.0,96,0.00,,,0.00,LWC V2.00 B2112,2013-02-04 15:21:00,
2013-02-04 07:26:00,27.9,26.9,30.08,NW,309,0.0,0.0,96,0.00,,,0.00,LWC V2.00 B2112,2013-02-04 15:26:00,
2013-02-04 07:31:00,27.9,26.9,30.08,NW,309,0.0,0.0,96,0.00,,,0.00,LWC V2.00 B2112,2013-02-04 15:31:00,
2013-02-04 07:36:00,28.2,27.2,30.08,NW,309,0.0,0.0,96,0.00,,,0.00,LWC V2.00 B2112,2013-02-04 15:36:00,
2013-02-04 07:41:00,28.2,27.2,30.08,NW,309,0.0,0.0,96,0.00,,,0.00,LWC V2.00 B2112,2013-02-04 15:41:00,
2013-02-04 07:46:00,28.2,27.0,30.08,NW,311,1.0,1.0,95,0.00,,,0.00,LWC V2.00 B2112,2013-02-04 15:46:00,
2013-02-04 07:51:00,28.5,27.5,30.08,East,95,0.0,2.0,96,0.00,,,0.00,LWC V2.00 B2112,2013-02-04 15:51:00,
2013-02-04 07:56:00,28.5,27.3,30.08,East,95,0.0,0.0,95,0.00,,,0.00,LWC V2.00 B2112,2013-02-04 15:56:00,
2013-02-04 08:01:00,28.5,27.3,30.08,East,95,0.0,0.0,95,0.00,,,0.00,LWC V2.00 B2112,2013-02-04 16:01:00,
2013-02-04 08:06:00,28.4,27.2,30.08,East,95,0.0,0.0,95,0.00,,,0.00,LWC V2.00 B2112,2013-02-04 16:06:00,
2013-02-04 08:11:00,28.4,27.2,30.08,NNW,329,0.0,0.0,95,0.00,,,0.00,LWC V2.00 B2112,2013-02-04 16:11:00,
2013-02-04 08:16:00,28.5,27.3,30.08,NNW,329,0.0,0.0,95,0.00,,,0.00,LWC V2.00 B2112,2013-02-04 16:16:00,
2013-02-04 08:21:00,28.4,27.2,30.08,NNW,329,0.0,0.0,95,0.00,,,0.00,LWC V2.00 B2112,2013-02-04 16:21:00,
2013-02-04 08:26:00,28.5,27.3,30.09,NNW,335,1.0,1.0,95,0.00,,,0.00,LWC V2.00 B2112,2013-02-04 16:26:00,
2013-02-04 08:31:00,28.7,27.5,30.09,ENE,72,0.0,2.0,95,0.00,,,0.00,LWC V2.00 B2112,2013-02-04 16:31:00,
2013-02-04 08:36:00,29.0,27.8,30.09,East,93,2.0,2.0,95,0.00,,,0.00,LWC V2.00 B2112,2013-02-04 16:36:00,
2013-02-04 08:41:00,29.3,28.0,30.10,East,100,2.0,2.0,95,0.00,,,0.00,LWC V2.00 B2112,2013-02-04 16:41:00,
2013-02-04 08:46:00,29.4,27.9,30.10,ENE,66,0.0,1.0,94,0.00,,,0.00,LWC V2.00 B2112,2013-02-04 16:46:00,
2013-02-04 08:51:00,29.5,28.0,30.10,ENE,78,0.0,2.0,94,0.00,,,0.00,LWC V2.00 B2112,2013-02-04 16:51:00,
2013-02-04 08:56:00,29.5,27.7,30.10,ENE,78,0.0,2.0,93,0.00,,,0.00,LWC V2.00 B2112,2013-02-04 16:56:00,
2013-02-04 09:01:00,29.8,28.3,30.10,ENE,78,0.0,0.0,94,0.00,,,0.00,LWC V2.00 B2112,2013-02-04 17:01:00,
2013-02-04 09:06:00,30.1,28.6,30.10,ENE,78,0.0,0.0,94,0.00,,,0.00,LWC V2.00 B2112,2013-02-04 17:06:00,
2013-02-04 09:11:00,30.3,28.5,30.09,ENE,78,0.0,0.0,93,0.00,,,0.00,LWC V2.00 B2112,2013-02-04 17:11:00,
2013-02-04 09:16:00,30.6,29.1,30.09,ENE,78,0.0,0.0,94,0.00,,,0.00,LWC V2.00 B2112,2013-02-04 17:16:00,
2013-02-04 09:21:00,30.7,29.2,30.09,ENE,78,0.0,0.0,94,0.00,,,0.00,LWC V2.00 B2112,2013-02-04 17:21:00,
2013-02-04 09:26:00,30.9,29.4,30.10,ENE,78,0.0,0.0,94,0.00,,,0.00,LWC V2.00 B2112,2013-02-04 17:26:00,
2013-02-04 09:31:00,31.2,29.4,30.10,ENE,78,0.0,0.0,93,0.00,,,0.00,LWC V2.00 B2112,2013-02-04 17:31:00,
2013-02-04 09:36:00,31.2,29.4,30.10,ENE,78,0.0,0.0,93,0.00,,,0.00,LWC V2.00 B2112,2013-02-04 17:36:00,
2013-02-04 09:41:00,30.9,29.1,30.10,ENE,78,0.0,0.0,93,0.00,,,0.00,LWC V2.00 B2112,2013-02-04 17:41:00,
2013-02-04 09:46:00,30.7,28.9,30.10,East,93,0.0,1.0,93,0.00,,,0.00,LWC V2.00 B2112,2013-02-04 17:46:00,
2013-02-04 09:51:00,30.9,29.1,30.10,East,93,0.0,0.0,93,0.00,,,0.00,LWC V2.00 B2112,2013-02-04 17:51:00,
2013-02-04 09:56:00,30.9,28.9,30.09,SE,144,0.0,0.0,92,0.00,,,0.00,LWC V2.00 B2112,2013-02-04 17:56:00,
2013-02-04 10:01:00,31.0,29.0,30.09,SE,143,0.0,0.0,92,0.00,,,0.00,LWC V2.00 B2112,2013-02-04 18:01:00,
2013-02-04 10:06:00,31.2,29.2,30.09,SE,143,0.0,0.0,92,0.00,,,0.00,LWC V2.00 B2112,2013-02-04 18:06:00,
2013-02-04 10:11:00,31.3,29.3,30.09,SE,144,0.0,0.0,92,0.00,,,0.00,LWC V2.00 B2112,2013-02-04 18:11:00,
2013-02-04 10:16:00,31.5,29.4,30.09,SE,144,0.0,0.0,92,0.00,,,0.00,LWC V2.00 B2112,2013-02-04 18:16:00,
2013-02-04 10:21:00,31.5,29.4,30.09,SE,144,0.0,0.0,92,0.00,,,0.00,LWC V2.00 B2112,2013-02-04 18:21:00,
2013-02-04 10:26:00,31.5,29.4,30.09,SE,144,0.0,0.0,92,0.00,,,0.00,LWC V2.00 B2112,2013-02-04 18:26:00,
2013-02-04 10:31:00,31.8,29.7,30.09,SE,144,0.0,0.0,92,0.00,,,0.00,LWC V2.00 B2112,2013-02-04 18:31:00,
2013-02-04 10:36:00,32.1,30.0,30.09,SE,144,0.0,0.0,92,0.00,,,0.00,LWC V2.00 B2112,2013-02-04 18:36:00,
2013-02-04 10:41:00,32.1,30.0,30.09,SE,144,0.0,0.0,92,0.00,,,0.00,LWC V2.00 B2112,2013-02-04 18:41:00,
2013-02-04 10:46:00,32.1,29.8,30.09,SE,144,0.0,0.0,91,0.00,,,0.00,LWC V2.00 B2112,2013-02-04 18:46:00,
2013-02-04 10:51:00,32.2,29.9,30.09,SE,144,0.0,0.0,91,0.00,,,0.00,LWC V2.00 B2112,2013-02-04 18:51:00,
2013-02-04 10:56:00,32.4,30.1,30.09,SE,144,0.0,1.0,91,0.00,,,0.00,LWC V2.00 B2112,2013-02-04 18:56:00,
2013-02-04 11:01:00,32.5,30.2,30.09,SE,144,0.0,2.0,91,0.00,,,0.00,LWC V2.00 B2112,2013-02-04 19:01:00,
2013-02-04 11:06:00,32.8,30.2,30.09,SSE,160,0.0,4.0,90,0.00,,,0.00,LWC V2.00 B2112,2013-02-04 19:06:00,
2013-02-04 11:11:00,33.1,30.5,30.09,SSE,160,0.0,0.0,90,0.00,,,0.00,LWC V2.00 B2112,2013-02-04 19:11:00,
2013-02-04 11:16:00,33.1,30.2,30.09,SSE,152,0.0,0.0,89,0.00,,,0.00,LWC V2.00 B2112,2013-02-04 19:16:00,
2013-02-04 11:21:00,33.2,30.3,30.09,SSE,152,0.0,0.0,89,0.00,,,0.00,LWC V2.00 B2112,2013-02-04 19:21:00,
2013-02-04 11:26:00,33.5,30.6,30.09,SSE,152,0.0,0.0,89,0.00,,,0.00,LWC V2.00 B2112,2013-02-04 19:26:00,
2013-02-04 11:31:00,33.7,30.5,30.09,SSE,152,0.0,1.0,88,0.00,,,0.00,LWC V2.00 B2112,2013-02-04 19:31:00,
2013-02-04 11:36:00,33.7,30.2,30.09,SSE,152,0.0,0.0,87,0.00,,,0.00,LWC V2.00 B2112,2013-02-04 19:36:00,
2013-02-04 11:41:00,34.0,30.5,30.08,SSE,152,0.0,1.0,87,0.00,,,0.00,LWC V2.00 B2112,2013-02-04 19:41:00,
2013-02-04 11:46:00,34.3,30.8,30.08,SSE,152,0.0,1.0,87,0.00,,,0.00,LWC V2.00 B2112,2013-02-04 19:46:00,
2013-02-04 11:51:00,34.4,30.7,30.08,SSE,152,0.0,0.0,86,0.00,,,0.00,LWC V2.00 B2112,2013-02-04 19:51:00,
2013-02-04 11:56:00,34.9,31.1,30.07,SSE,168,0.0,2.0,86,0.00,,,0.00,LWC V2.00 B2112,2013-02-04 19:56:00,
2013-02-04 12:01:00,35.2,31.2,30.07,SSE,155,0.0,0.0,85,0.00,,,0.00,LWC V2.00 B2112,2013-02-04 20:01:00,
2013-02-04 12:06:00,35.6,31.3,30.07,South,172,0.0,0.0,84,0.00,,,0.00,LWC V2.00 B2112,2013-02-04 20:06:00,
2013-02-04 12:11:00,35.9,31.2,30.06,SSE,167,0.0,1.0,83,0.00,,,0.00,LWC V2.00 B2112,2013-02-04 20:11:00,
2013-02-04 12:16:00,35.8,31.2,30.06,SSE,161,0.0,2.0,83,0.00,,,0.00,LWC V2.00 B2112,2013-02-04 20:16:00,
2013-02-04 12:21:00,35.6,31.0,30.06,SSE,161,0.0,0.0,83,0.00,,,0.00,LWC V2.00 B2112,2013-02-04 20:21:00,
2013-02-04 12:26:00,35.5,30.9,30.06,SSE,161,0.0,0.0,83,0.00,,,0.00,LWC V2.00 B2112,2013-02-04 20:26:00,
2013-02-04 12:31:00,35.6,31.0,30.06,SSE,162,0.0,0.0,83,0.00,,,0.00,LWC V2.00 B2112,2013-02-04 20:31:00,
2013-02-04 12:36:00,35.5,31.2,30.06,SSE,148,0.0,8.0,84,0.00,,,0.00,LWC V2.00 B2112,2013-02-04 20:36:00,
2013-02-04 12:41:00,35.5,31.2,30.06,SSE,155,0.0,0.0,84,0.00,,,0.00,LWC V2.00 B2112,2013-02-04 20:41:00,
2013-02-04 12:46:00,35.6,31.3,30.06,SSE,168,0.0,2.0,84,0.00,,,0.00,LWC V2.00 B2112,2013-02-04 20:46:00,
2013-02-04 12:51:00,35.8,31.2,30.06,SSE,160,0.0,0.0,83,0.00,,,0.00,LWC V2.00 B2112,2013-02-04 20:51:00,
2013-02-04 12:56:00,36.0,31.0,30.05,SE,144,2.0,6.0,82,0.00,,,0.00,LWC V2.00 B2112,2013-02-04 20:56:00,
2013-02-04 13:01:00,36.0,31.0,30.05,South,169,0.0,0.0,82,0.00,,,0.00,LWC V2.00 B2112,2013-02-04 21:01:00,
2013-02-04 13:06:00,36.3,31.3,30.05,SSE,157,0.0,2.0,82,0.00,,,0.00,LWC V2.00 B2112,2013-02-04 21:06:00,
2013-02-04 13:11:00,36.3,31.3,30.05,SSE,168,0.0,2.0,82,0.00,,,0.00,LWC V2.00 B2112,2013-02-04 21:11:00,
2013-02-04 13:16:00,36.3,31.3,30.05,South,186,0.0,6.0,82,0.00,,,0.00,LWC V2.00 B2112,2013-02-04 21:16:00,
2013-02-04 13:21:00,36.2,31.5,30.05,SSE,160,0.0,6.0,83,0.00,,,0.00,LWC V2.00 B2112,2013-02-04 21:21:00,
2013-02-04 13:26:00,36.0,31.0,30.04,SSE,157,2.0,7.0,82,0.00,,,0.00,LWC V2.00 B2112,2013-02-04 21:26:00,
2013-02-04 13:31:00,36.0,31.3,30.04,SSE,152,1.0,6.0,83,0.00,,,0.00,LWC V2.00 B2112,2013-02-04 21:31:00,
2013-02-04 13:36:00,36.0,31.3,30.04,SSE,157,0.0,6.0,83,0.00,,,0.00,LWC V2.00 B2112,2013-02-04 21:36:00,
2013-02-04 13:41:00,36.3,31.3,30.04,SSE,152,0.0,2.0,82,0.00,,,0.00,LWC V2.00 B2112,2013-02-04 21:41:00,
2013-02-04 13:46:00,36.9,31.3,30.04,SSE,154,0.0,1.0,80,0.00,,,0.00,LWC V2.00 B2112,2013-02-04 21:46:00,
2013-02-04 13:51:00,37.0,30.8,30.04,SSE,152,0.0,4.0,78,0.00,,,0.00,LWC V2.00 B2112,2013-02-04 21:51:00,
2013-02-04 13:56:00,37.2,31.3,30.03,SSE,148,1.0,6.0,79,0.00,,,0.00,LWC V2.00 B2112,2013-02-04 21:56:00,
2013-02-04 14:01:00,36.9,31.6,30.03,SE,127,0.0,6.0,81,0.00,,,0.00,LWC V2.00 B2112,2013-02-04 22:01:00,
2013-02-04 14:06:00,36.6,31.3,30.03,SE,134,0.0,4.0,81,0.00,,,0.00,LWC V2.00 B2112,2013-02-04 22:06:00,
2013-02-04 14:11:00,36.3,31.3,30.02,SE,137,1.0,4.0,82,0.00,,,0.00,LWC V2.00 B2112,2013-02-04 22:11:00,
2013-02-04 14:16:00,36.2,31.2,30.02,SSE,164,0.0,4.0,82,0.00,,,0.00,LWC V2.00 B2112,2013-02-04 22:16:00,
2013-02-04 14:21:00,36.2,31.2,30.02,SSE,154,0.0,4.0,82,0.00,,,0.00,LWC V2.00 B2112,2013-02-04 22:21:00,
2013-02-04 14:26:00,36.2,31.2,30.03,SSE,167,0.0,4.0,82,0.00,,,0.00,LWC V2.00 B2112,2013-02-04 22:26:00,
2013-02-04 14:31:00,36.0,31.3,30.03,SSE,151,1.0,2.0,83,0.00,,,0.00,LWC V2.00 B2112,2013-02-04 22:31:00,
2013-02-04 14:36:00,36.2,31.5,30.03,SSE,162,0.0,2.0,83,0.00,,,0.00,LWC V2.00 B2112,2013-02-04 22:36:00,
2013-02-04 14:41:00,36.5,31.5,30.02,SSE,164,0.0,0.0,82,0.00,,,0.00,LWC V2.00 B2112,2013-02-04 22:41:00,
2013-02-04 14:46:00,36.6,31.6,30.02,SSE,157,0.0,2.0,82,0.00,,,0.00,LWC V2.00 B2112,2013-02-04 22:46:00,
2013-02-04 14:51:00,36.9,31.6,30.02,South,181,2.0,4.0,81,0.00,,,0.00,LWC V2.00 B2112,2013-02-04 22:51:00,
2013-02-04 14:56:00,37.0,31.7,30.02,South,179,0.0,4.0,81,0.00,,,0.00,LWC V2.00 B2112,2013-02-04 22:56:00,
2013-02-04 15:01:00,37.0,31.4,30.02,South,179,1.0,2.0,80,0.00,,,0.00,LWC V2.00 B2112,2013-02-04 23:01:00,
2013-02-04 15:06:00,37.0,31.4,30.02,SSE,168,0.0,2.0,80,0.00,,,0.00,LWC V2.00 B2112,2013-02-04 23:06:00,
2013-02-04 15:11:00,36.9,31.3,30.02,SSE,168,0.0,0.0,80,0.00,,,0.00,LWC V2.00 B2112,2013-02-04 23:11:00,
2013-02-04 15:16:00,36.6,31.3,30.02,South,172,0.0,0.0,81,0.00,,,0.00,LWC V2.00 B2112,2013-02-04 23:16:00,
2013-02-04 15:21:00,36.5,31.2,30.02,South,174,0.0,4.0,81,0.00,,,0.00,LWC V2.00 B2112,2013-02-04 23:21:00,
2013-02-04 15:26:00,36.2,31.5,30.01,SSE,165,2.0,2.0,83,0.00,,,0.00,LWC V2.00 B2112,2013-02-04 23:26:00,
2013-02-04 15:31:00,36.0,31.3,30.01,SSE,157,0.0,2.0,83,0.00,,,0.00,LWC V2.00 B2112,2013-02-04 23:31:00,
2013-02-04 15:36:00,35.9,31.2,30.01,SE,145,0.0,1.0,83,0.00,,,0.00,LWC V2.00 B2112,2013-02-04 23:36:00,
2013-02-04 15:41:00,35.9,31.2,30.00,SE,145,0.0,0.0,83,0.00,,,0.00,LWC V2.00 B2112,2013-02-04 23:41:00,
2013-02-04 15:46:00,35.8,31.4,30.00,SSE,152,0.0,1.0,84,0.00,,,0.00,LWC V2.00 B2112,2013-02-04 23:46:00,
2013-02-04 15:51:00,35.8,31.4,30.00,South,175,0.0,2.0,84,0.00,,,0.00,LWC V2.00 B2112,2013-02-04 23:51:00,
2013-02-04 15:56:00,35.8,31.2,30.00,South,174,0.0,1.0,83,0.00,,,0.00,LWC V2.00 B2112,2013-02-04 23:56:00,
2013-02-04 16:01:00,35.8,31.4,30.00,South,174,0.0,0.0,84,0.00,,,0.00,LWC V2.00 B2112,2013-02-05 00:01:00,
2013-02-04 16:06:00,35.6,31.3,30.00,South,171,0.0,0.0,84,0.00,,,0.00,LWC V2.00 B2112,2013-02-05 00:06:00,
2013-02-04 16:11:00,35.5,31.4,30.00,South,171,0.0,1.0,85,0.00,,,0.00,LWC V2.00 B2112,2013-02-05 00:11:00,
2013-02-04 16:16:00,35.3,31.0,30.00,South,171,0.0,0.0,84,0.00,,,0.00,LWC V2.00 B2112,2013-02-05 00:16:00,
2013-02-04 16:21:00,35.2,31.2,30.00,South,171,0.0,0.0,85,0.00,,,0.00,LWC V2.00 B2112,2013-02-05 00:21:00,
2013-02-04 16:26:00,34.7,30.9,30.00,South,171,0.0,0.0,86,0.00,,,0.00,LWC V2.00 B2112,2013-02-05 00:26:00,
2013-02-04 16:31:00,34.6,31.1,30.00,South,169,0.0,0.0,87,0.00,,,0.00,LWC V2.00 B2112,2013-02-05 00:31:00,
2013-02-04 16:36:00,34.4,30.9,30.00,South,169,0.0,0.0,87,0.00,,,0.00,LWC V2.00 B2112,2013-02-05 00:36:00,
2013-02-04 16:41:00,34.0,30.8,30.00,South,169,0.0,0.0,88,0.00,,,0.00,LWC V2.00 B2112,2013-02-05 00:41:00,
2013-02-04 16:46:00,34.0,30.8,30.00,South,169,0.0,0.0,88,0.00,,,0.00,LWC V2.00 B2112,2013-02-05 00:46:00,
2013-02-04 16:51:00,33.7,30.5,30.00,South,169,0.0,0.0,88,0.00,,,0.00,LWC V2.00 B2112,2013-02-05 00:51:00,
2013-02-04 16:56:00,33.4,30.2,30.00,South,169,0.0,0.0,88,0.00,,,0.00,LWC V2.00 B2112,2013-02-05 00:56:00,
2013-02-04 17:01:00,32.9,29.7,30.00,South,169,0.0,0.0,88,0.00,,,0.00,LWC V2.00 B2112,2013-02-05 01:01:00,
2013-02-04 17:06:00,32.7,29.8,30.00,South,169,0.0,0.0,89,0.00,,,0.00,LWC V2.00 B2112,2013-02-05 01:06:00,
2013-02-04 17:11:00,32.4,29.5,30.00,South,169,0.0,0.0,89,0.00,,,0.00,LWC V2.00 B2112,2013-02-05 01:11:00,
2013-02-04 17:16:00,32.1,29.2,30.00,South,169,0.0,0.0,89,0.00,,,0.00,LWC V2.00 B2112,2013-02-05 01:16:00,
2013-02-04 17:21:00,31.8,29.5,30.00,South,169,0.0,0.0,91,0.00,,,0.00,LWC V2.00 B2112,2013-02-05 01:21:00,
2013-02-04 17:26:00,31.3,29.0,30.01,South,169,0.0,0.0,91,0.00,,,0.00,LWC V2.00 B2112,2013-02-05 01:26:00,
2013-02-04 17:31:00,31.2,29.2,30.01,South,169,0.0,0.0,92,0.00,,,0.00,LWC V2.00 B2112,2013-02-05 01:31:00,
2013-02-04 17:36:00,31.0,29.0,30.01,South,169,0.0,0.0,92,0.00,,,0.00,LWC V2.00 B2112,2013-02-05 01:36:00,
2013-02-04 17:41:00,30.7,29.2,30.01,South,169,0.0,2.0,94,0.00,,,0.00,LWC V2.00 B2112,2013-02-05 01:41:00,
2013-02-04 17:46:00,30.4,28.6,30.01,South,169,0.0,0.0,93,0.00,,,0.00,LWC V2.00 B2112,2013-02-05 01:46:00,
2013-02-04 17:51:00,30.4,28.4,30.01,South,169,0.0,0.0,92,0.00,,,0.00,LWC V2.00 B2112,2013-02-05 01:51:00,
2013-02-04 17:56:00,30.3,28.5,30.01,South,169,0.0,0.0,93,0.00,,,0.00,LWC V2.00 B2112,2013-02-05 01:56:00,
2013-02-04 18:01:00,30.1,28.3,30.01,South,169,0.0,0.0,93,0.00,,,0.00,LWC V2.00 B2112,2013-02-05 02:01:00,
2013-02-04 18:06:00,30.0,28.0,30.01,South,169,0.0,0.0,92,0.00,,,0.00,LWC V2.00 B2112,2013-02-05 02:06:00,
2013-02-04 18:11:00,30.0,28.2,30.01,South,169,0.0,0.0,93,0.00,,,0.00,LWC V2.00 B2112,2013-02-05 02:11:00,
2013-02-04 18:16:00,30.3,28.8,30.01,South,169,0.0,0.0,94,0.00,,,0.00,LWC V2.00 B2112,2013-02-05 02:16:00,
2013-02-04 18:21:00,30.0,28.5,30.01,South,169,0.0,0.0,94,0.00,,,0.00,LWC V2.00 B2112,2013-02-05 02:21:00,
2013-02-04 18:26:00,29.8,28.0,30.01,South,169,0.0,0.0,93,0.00,,,0.00,LWC V2.00 B2112,2013-02-05 02:26:00,
2013-02-04 18:31:00,29.7,27.9,30.01,South,169,0.0,0.0,93,0.00,,,0.00,LWC V2.00 B2112,2013-02-05 02:31:00,
2013-02-04 18:36:00,29.7,28.4,30.01,WSW,250,2.0,4.0,95,0.00,,,0.00,LWC V2.00 B2112,2013-02-05 02:36:00,
2013-02-04 18:41:00,29.7,28.2,30.01,WSW,250,0.0,0.0,94,0.00,,,0.00,LWC V2.00 B2112,2013-02-05 02:41:00,
2013-02-04 18:46:00,29.4,27.9,30.01,WSW,250,0.0,0.0,94,0.00,,,0.00,LWC V2.00 B2112,2013-02-05 02:46:00,
2013-02-04 18:51:00,29.5,28.0,30.01,WSW,250,0.0,0.0,94,0.00,,,0.00,LWC V2.00 B2112,2013-02-05 02:51:00,
2013-02-04 18:56:00,29.7,28.2,30.00,WSW,250,0.0,0.0,94,0.00,,,0.00,LWC V2.00 B2112,2013-02-05 02:56:00,
2013-02-04 19:01:00,29.5,28.0,30.00,WSW,250,0.0,0.0,94,0.00,,,0.00,LWC V2.00 B2112,2013-02-05 03:01:00,
2013-02-04 19:06:00,29.5,28.2,30.00,WSW,250,0.0,0.0,95,0.00,,,0.00,LWC V2.00 B2112,2013-02-05 03:06:00,
2013-02-04 19:11:00,29.4,28.1,30.01,WSW,250,0.0,0.0,95,0.00,,,0.00,LWC V2.00 B2112,2013-02-05 03:11:00,
2013-02-04 19:16:00,29.5,28.2,30.01,WSW,250,0.0,0.0,95,0.00,,,0.00,LWC V2.00 B2112,2013-02-05 03:16:00,
2013-02-04 19:21:00,30.0,28.7,30.01,WSW,250,0.0,0.0,95,0.00,,,0.00,LWC V2.00 B2112,2013-02-05 03:21:00,
2013-02-04 19:26:00,30.0,29.0,30.00,SSW,206,1.0,2.0,96,0.00,,,0.00,LWC V2.00 B2112,2013-02-05 03:26:00,
2013-02-04 19:31:00,30.4,29.4,30.00,SSW,206,0.0,0.0,96,0.00,,,0.00,LWC V2.00 B2112,2013-02-05 03:31:00,
2013-02-04 19:36:00,30.1,29.1,30.00,SSW,206,0.0,0.0,96,0.00,,,0.00,LWC V2.00 B2112,2013-02-05 03:36:00,
2013-02-04 19:41:00,30.0,28.7,30.00,SSW,206,0.0,0.0,95,0.00,,,0.00,LWC V2.00 B2112,2013-02-05 03:41:00,
2013-02-04 19:46:00,30.0,28.7,30.00,SSW,206,0.0,0.0,95,0.00,,,0.00,LWC V2.00 B2112,2013-02-05 03:46:00,
2013-02-04 19:51:00,30.0,28.7,30.00,SSW,206,0.0,0.0,95,0.00,,,0.00,LWC V2.00 B2112,2013-02-05 03:51:00,
2013-02-04 19:56:00,30.0,28.7,29.99,SSW,206,0.0,0.0,95,0.00,,,0.00,LWC V2.00 B2112,2013-02-05 03:56:00,
2013-02-04 20:01:00,30.0,28.7,29.99,SSW,206,0.0,0.0,95,0.00,,,0.00,LWC V2.00 B2112,2013-02-05 04:01:00,
2013-02-04 20:06:00,30.1,29.1,29.99,SSW,206,0.0,0.0,96,0.00,,,0.00,LWC V2.00 B2112,2013-02-05 04:06:00,
2013-02-04 20:11:00,30.4,29.4,29.99,SSW,206,0.0,0.0,96,0.00,,,0.00,LWC V2.00 B2112,2013-02-05 04:11:00,
2013-02-04 20:16:00,30.6,29.6,29.99,SSW,206,0.0,0.0,96,0.00,,,0.00,LWC V2.00 B2112,2013-02-05 04:16:00,
2013-02-04 20:21:00,30.4,29.4,29.99,SSW,206,0.0,0.0,96,0.00,,,0.00,LWC V2.00 B2112,2013-02-05 04:21:00,
2013-02-04 20:26:00,30.3,29.3,29.99,SSW,206,0.0,0.0,96,0.00,,,0.00,LWC V2.00 B2112,2013-02-05 04:26:00,
2013-02-04 20:31:00,30.3,29.0,29.99,SSW,206,0.0,0.0,95,0.00,,,0.00,LWC V2.00 B2112,2013-02-05 04:31:00,
2013-02-04 20:36:00,30.4,29.4,29.99,SSW,206,0.0,0.0,96,0.00,,,0.00,LWC V2.00 B2112,2013-02-05 04:36:00,
2013-02-04 20:41:00,30.6,29.6,29.97,SSW,206,2.0,2.0,96,0.00,,,0.00,LWC V2.00 B2112,2013-02-05 04:41:00,
2013-02-04 20:46:00,30.6,29.3,29.97,SSW,206,0.0,0.0,95,0.00,,,0.00,LWC V2.00 B2112,2013-02-05 04:46:00,
2013-02-04 20:51:00,30.7,29.4,29.97,SSW,206,0.0,0.0,95,0.00,,,0.00,LWC V2.00 B2112,2013-02-05 04:51:00,
2013-02-04 20:57:00,30.7,29.4,29.97,SSW,206,0.0,0.0,95,0.00,,,0.00,LWC V2.00 B2112,2013-02-05 04:57:00,
2013-02-04 21:00:00,30.7,29.4,29.97,SSW,206,0.0,0.0,95,0.00,,,0.00,LWC V2.00 B2112,2013-02-05 05:00:00,
2013-02-04 21:05:00,30.9,29.6,29.97,SSW,203,0.0,2.0,95,0.00,,,0.00,LWC V2.00 B2112,2013-02-05 05:05:00,
2013-02-04 21:10:00,30.9,29.6,29.97,SSW,203,0.0,0.0,95,0.00,,,0.00,LWC V2.00 B2112,2013-02-05 05:10:00,
2013-02-04 21:15:00,31.0,29.7,29.97,SSW,203,0.0,0.0,95,0.00,,,0.00,LWC V2.00 B2112,2013-02-05 05:15:00,
2013-02-04 21:20:00,30.9,29.6,29.97,SSW,203,0.0,0.0,95,0.00,,,0.00,LWC V2.00 B2112,2013-02-05 05:20:00,
2013-02-04 21:25:00,30.9,29.6,29.97,SSW,203,0.0,0.0,95,0.00,,,0.00,LWC V2.00 B2112,2013-02-05 05:25:00,
2013-02-04 21:30:00,31.0,29.7,29.97,ESE,120,0.0,0.0,95,0.00,,,0.00,LWC V2.00 B2112,2013-02-05 05:30:00,
2013-02-04 21:35:00,31.3,30.0,29.97,ESE,120,0.0,0.0,95,0.00,,,0.00,LWC V2.00 B2112,2013-02-05 05:35:00,
2013-02-04 21:40:00,31.3,30.0,29.97,ESE,120,0.0,0.0,95,0.00,,,0.00,LWC V2.00 B2112,2013-02-05 05:40:00,
2013-02-04 21:45:00,31.6,30.3,29.97,NE,49,0.0,0.0,95,0.00,,,0.00,LWC V2.00 B2112,2013-02-05 05:45:00,
2013-02-04 21:50:00,31.9,30.6,29.97,NE,49,0.0,0.0,95,0.00,,,0.00,LWC V2.00 B2112,2013-02-05 05:50:00,
2013-02-04 21:55:00,31.9,30.6,29.97,NE,49,0.0,0.0,95,0.00,,,0.00,LWC V2.00 B2112,2013-02-05 05:55:00,
2013-02-04 22:00:00,31.9,30.4,29.97,NE,49,0.0,2.0,94,0.00,,,0.00,LWC V2.00 B2112,2013-02-05 06:00:00,
2013-02-04 22:05:00,31.8,30.3,29.97,NE,49,0.0,0.0,94,0.00,,,0.00,LWC V2.00 B2112,2013-02-05 06:05:00,
2013-02-04 22:10:00,31.8,30.3,29.97,NE,49,0.0,0.0,94,0.00,,,0.00,LWC V2.00 B2112,2013-02-05 06:10:00,
2013-02-04 22:15:00,31.9,30.4,29.96,NE,49,0.0,0.0,94,0.00,,,0.00,LWC V2.00 B2112,2013-02-05 06:15:00,
2013-02-04 22:20:00,32.1,30.6,29.96,ENE,76,0.0,2.0,94,0.00,,,0.00,LWC V2.00 B2112,2013-02-05 06:20:00,
2013-02-04 22:25:00,32.2,30.7,29.96,ENE,76,0.0,1.0,94,0.00,,,0.00,LWC V2.00 B2112,2013-02-05 06:25:00,
2013-02-04 22:30:00,32.2,30.7,29.96,East,79,0.0,2.0,94,0.00,,,0.00,LWC V2.00 B2112,2013-02-05 06:30:00,
2013-02-04 22:35:00,32.4,30.9,29.96,ESE,120,0.0,0.0,94,0.00,,,0.00,LWC V2.00 B2112,2013-02-05 06:35:00,
2013-02-04 22:40:00,32.4,30.9,29.96,ESE,120,0.0,0.0,94,0.00,,,0.00,LWC V2.00 B2112,2013-02-05 06:40:00,
2013-02-04 22:45:00,32.4,30.9,29.95,ESE,120,0.0,0.0,94,0.00,,,0.00,LWC V2.00 B2112,2013-02-05 06:45:00,
2013-02-04 22:50:00,32.2,30.7,29.95,ESE,120,0.0,0.0,94,0.00,,,0.00,LWC V2.00 B2112,2013-02-05 06:50:00,
2013-02-04 22:55:00,32.2,30.7,29.95,ESE,120,0.0,0.0,94,0.00,,,0.00,LWC V2.00 B2112,2013-02-05 06:55:00,
2013-02-04 23:00:00,32.2,30.7,29.95,ESE,120,0.0,0.0,94,0.00,,,0.00,LWC V2.00 B2112,2013-02-05 07:00:00,
2013-02-04 23:05:00,32.2,30.7,29.95,ESE,120,0.0,0.0,94,0.00,,,0.00,LWC V2.00 B2112,2013-02-05 07:05:00,
2013-02-04 23:10:00,32.2,30.7,29.95,ESE,120,0.0,0.0,94,0.00,,,0.00,LWC V2.00 B2112,2013-02-05 07:10:00,
2013-02-04 23:15:00,32.2,30.7,29.94,ESE,120,0.0,0.0,94,0.00,,,0.00,LWC V2.00 B2112,2013-02-05 07:15:00,
2013-02-04 23:20:00,32.2,30.7,29.94,ESE,120,0.0,0.0,94,0.00,,,0.00,LWC V2.00 B2112,2013-02-05 07:20:00,
2013-02-04 23:25:00,32.2,30.7,29.94,ESE,120,0.0,0.0,94,0.00,,,0.00,LWC V2.00 B2112,2013-02-05 07:25:00,
2013-02-04 23:30:00,32.2,30.7,29.94,ESE,120,0.0,0.0,94,0.00,,,0.00,LWC V2.00 B2112,2013-02-05 07:30:00,
2013-02-04 23:35:00,32.1,30.6,29.94,ESE,120,0.0,0.0,94,0.00,,,0.00,LWC V2.00 B2112,2013-02-05 07:35:00,
2013-02-04 23:40:00,32.1,30.6,29.94,ESE,120,0.0,0.0,94,0.00,,,0.00,LWC V2.00 B2112,2013-02-05 07:40:00,
2013-02-04 23:45:00,32.1,30.6,29.93,ESE,120,0.0,0.0,94,0.00,,,0.00,LWC V2.00 B2112,2013-02-05 07:45:00,
2013-02-04 23:50:00,32.1,30.6,29.93,ESE,120,0.0,0.0,94,0.00,,,0.00,LWC V2.00 B2112,2013-02-05 07:50:00,
2013-02-04 23:55:00,31.9,30.4,29.93,ESE,120,0.0,0.0,94,0.00,,,0.00,LWC V2.00 B2112,2013-02-05 07:55:00,